This is the latest recevied weather packets stored in our database for station/object DL4JCP-6. If no packets are shown the sender has not sent any weather packets the latest 10 day(s).
| Time | Temp. | Humidity | Pressure | Rain* | Wind** | Luminosity | Snow |
|---|---|---|---|---|---|---|---|
| 1777506493 | 2.22° C | 54% | 1031.1 hPa | 0 mm | - | - | - |
| 1777505593 | 1.11° C | 57% | 1031.1 hPa | 0 mm | - | - | - |
| 1777504693 | 1.67° C | 58% | 1031.2 hPa | 0 mm | - | - | - |
| 1777503792 | 1.67° C | 58% | 1031.4 hPa | 0 mm | - | - | - |
| 1777502892 | 1.67° C | 57% | 1031.3 hPa | 0 mm | - | - | - |
| 1777501992 | 1.67° C | 58% | 1031.3 hPa | 0 mm | - | - | - |
| 1777501092 | 1.67° C | 57% | 1031.1 hPa | 0 mm | - | - | - |
| 1777500192 | 1.67° C | 57% | 1030.9 hPa | 0 mm | - | - | - |
| 1777499295 | 2.22° C | 55% | 1030.9 hPa | 0 mm | - | - | - |
| 1777498395 | 2.78° C | 53% | 1031.1 hPa | 0 mm | - | - | - |
| 1777497495 | 3.33° C | 52% | 1031 hPa | 0 mm | - | - | - |
| 1777496595 | 3.33° C | 52% | 1030.9 hPa | 0 mm | - | - | - |
| 1777495695 | 3.33° C | 51% | 1030.7 hPa | 0 mm | - | - | - |
| 1777494794 | 3.33° C | 51% | 1030.3 hPa | 0 mm | - | - | - |
| 1777494530 | 3.89° C | 50% | 1030.5 hPa | 0 mm | - | - | - |
| 1777494230 | 3.89° C | 51% | 1030.3 hPa | 0 mm | - | - | - |
| 1777493934 | 3.89° C | 51% | 1030.3 hPa | 0 mm | - | - | - |
| 1777493891 | 3.89° C | 51% | 1030.3 hPa | 0 mm | - | - | - |
| 1777493630 | 3.33° C | 51% | 1030.2 hPa | 0 mm | - | - | - |
| 1777493330 | 3.33° C | 51% | 1030.2 hPa | 0 mm | - | - | - |
| 1777493034 | 3.33° C | 52% | 1030.1 hPa | 0 mm | - | - | - |
| 1777492991 | 3.33° C | 52% | 1030.1 hPa | 0 mm | - | - | - |
| 1777492730 | 3.33° C | 52% | 1030 hPa | 0 mm | - | - | - |
| 1777492429 | 3.33° C | 52% | 1030 hPa | 0 mm | - | - | - |
| 1777492129 | 3.89° C | 51% | 1030 hPa | 0 mm | - | - | - |
* Rain latest hour (hover to see other rain measurements)
** Current wind speed in m/s (hover to see current wind gust speed)